OE5RPP Weather Reports


Display with metric or nautical units.
time (UTC)temp
F
wind
direction
speed
MPH
gust
MPH
rain 1hr
in
rain 24hr
in
rain mn
in
humidity
%
barometer
mb
20260507044130 50 180 0.0 0.0 0.00 0.16 0.00 60 1014.9
20260507043135 49 180 4.0 4.0 0.00 0.16 0.00 61 1014.9
20260507040132 49 180 6.0 5.0 0.00 0.16 0.00 62 1014.9
20260507035131 49 157 3.0 4.0 0.00 0.16 0.00 62 1014.9
20260507034134 49 180 5.0 6.0 0.00 0.16 0.00 63 1014.9
20260507033132 49 135 6.0 4.0 0.00 0.16 0.00 62 1014.9
20260507030131 48 202 4.0 5.0 0.00 0.16 0.00 63 1013.9
20260507025132 48 180 4.0 4.0 0.00 0.16 0.00 62 1013.9
20260507024132 48 180 6.0 5.0 0.00 0.16 0.00 62 1013.9
20260507022131 49 157 6.0 7.0 0.00 0.16 0.00 63 1013.9
20260507020136 48 157 6.0 6.0 0.00 0.16 0.00 62 1013.9
20260507015131 48 157 5.0 5.0 0.00 0.16 0.00 62 1013.9
20260507014131 49 157 0.0 0.0 0.00 0.16 0.00 62 1013.9
20260507012136 49 180 5.0 5.0 0.00 0.16 0.00 62 1013.9
20260507011131 49 157 4.0 4.0 0.00 0.16 0.00 62 1013.9
20260507010130 49 202 4.0 4.0 0.00 0.16 0.00 62 1013.9
20260507004136 49 225 3.0 4.0 0.00 0.16 0.00 62 1013.9
20260507003131 49 157 9.0 10.0 0.00 0.16 0.00 61 1013.9
20260507001132 49 180 5.0 5.0 0.00 0.16 0.00 61 1013.9
20260506234135 50 180 3.0 4.0 0.00 0.16 0.00 60 1013.9
20260506232131 50 157 5.0 4.0 0.00 0.16 0.00 60 1013.9
20260506230137 50 180 5.0 6.0 0.00 0.16 0.00 59 1013.9
20260506224132 51 180 5.0 3.0 0.00 0.16 0.00 59 1013.9
20260506222132 51 157 3.0 5.0 0.00 0.16 0.00 59 1013.9
20260506221132 51 180 4.0 4.0 0.00 0.16 0.00 58 1012.9
20260506220131 51 180 6.0 6.0 0.00 0.16 0.00 58 1012.9
20260506212135 51 180 4.0 4.0 0.00 0.12 0.12 58 1012.9
20260506211131 51 225 2.0 3.0 0.00 0.12 0.12 57 1012.9
20260506204132 52 247 5.0 7.0 0.00 0.08 0.08 57 1012.9
20260506202136 52 270 8.0 8.0 0.00 0.08 0.08 58 1012.9
20260506195132 53 180 11.0 12.0 0.08 0.08 0.08 60 1011.9
20260506194131 54 225 7.0 9.0 0.08 0.08 0.08 59 1011.9
20260506193131 54 247 9.0 12.0 0.04 0.04 0.04 59 1011.9
20260506190136 55 270 4.0 4.0 0.00 0.00 0.00 51 1010.9
20260506185131 56 247 5.0 5.0 0.00 0.00 0.00 48 1010.9
20260506183135 57 180 6.0 4.0 0.00 0.00 0.00 40 1009.9
20260506182132 58 225 4.0 3.0 0.00 0.00 0.00 39 1009.9
20260506180132 58 225 5.0 4.0 0.00 0.00 0.00 34 1008.9
20260506175134 58 135 6.0 4.0 0.00 0.00 0.00 32 1008.9
20260506174131 58 270 9.0 8.0 0.00 0.00 0.00 30 1007.9
20260506173131 59 270 10.0 14.0 0.00 0.00 0.00 30 1007.9
20260506165135 72 180 5.0 3.0 0.00 0.00 0.00 18 1004.9
20260506164132 75 180 9.0 6.0 0.00 0.00 0.00 18 1004.9
20260506163133 79 135 7.0 7.0 0.00 0.00 0.00 17 1004.9
20260506162136 79 135 6.0 6.0 0.00 0.00 0.00 17 1004.9
20260506161132 79 157 6.0 8.0 0.00 0.00 0.00 17 1004.9
20260506160131 78 90 4.0 4.0 0.00 0.00 0.00 17 1004.9
20260506155131 77 90 3.0 3.0 0.00 0.00 0.00 17 1004.9
20260506153132 75 135 3.0 3.0 0.00 0.00 0.00 18 1005.9
20260506151135 72 90 2.0 4.0 0.00 0.00 0.00 18 1005.9
20260506145132 71 0 1.0 3.0 0.00 0.00 0.00 18 1005.9
20260506144134 71 0 4.0 4.0 0.00 0.00 0.00 20 1005.9
20260506141130 71 0 6.0 7.0 0.00 0.00 0.00 20 1006.9
20260506140131 72 22 5.0 4.0 0.00 0.00 0.00 18 1006.9
20260506134130 71 0 5.0 5.0 0.00 0.00 0.00 20 1006.9
20260506131131 74 22 6.0 4.0 0.00 0.00 0.00 18 1006.9
20260506130133 76 337 5.0 4.0 0.00 0.00 0.00 18 1007.9
20260506124134 73 337 5.0 6.0 0.00 0.00 0.00 18 1007.9
20260506122136 72 22 6.0 5.0 0.00 0.00 0.00 18 1007.9
20260506121133 74 0 5.0 4.0 0.00 0.00 0.00 18 1007.9
20260506115131 72 45 6.0 4.0 0.00 0.00 0.00 18 1007.9
20260506114135 72 315 5.0 4.0 0.00 0.00 0.00 18 1007.9
20260506113133 74 22 6.0 6.0 0.00 0.00 0.00 18 1008.9
20260506111130 74 315 4.0 3.0 0.00 0.00 0.00 18 1008.9
20260506110129 73 337 4.0 4.0 0.00 0.00 0.00 18 1008.9
20260506105130 71 45 4.0 3.0 0.00 0.00 0.00 20 1008.9
20260506104131 70 0 4.0 5.0 0.00 0.00 0.00 20 1008.9
20260506103130 69 0 6.0 6.0 0.00 0.00 0.00 20 1009.9
20260506102105 71 45 4.0 5.0 0.00 0.00 0.00 20 1009.9
20260506101106 71 67 3.0 4.0 0.00 0.00 0.00 22 1009.9
20260506100106 68 45 4.0 3.0 0.00 0.00 0.00 23 1009.9
20260506095106 67 270 6.0 6.0 0.00 0.00 0.00 23 1009.9
20260506094105 67 45 3.0 4.0 0.00 0.00 0.00 30 1009.9
20260506093107 65 67 4.0 4.0 0.00 0.00 0.00 30 1009.9
20260506092107 65 112 4.0 4.0 0.00 0.00 0.00 30 1009.9
20260506091106 63 337 3.0 4.0 0.00 0.00 0.00 31 1009.9
20260506090105 64 22 4.0 7.0 0.00 0.00 0.00 27 1009.9
20260506085105 64 90 5.0 4.0 0.00 0.00 0.00 31 1009.9
20260506084107 64 45 3.0 3.0 0.00 0.00 0.00 31 1009.9
20260506083106 63 0 5.0 4.0 0.00 0.00 0.00 34 1009.9
20260506082106 61 22 3.0 4.0 0.00 0.00 0.00 36 1009.9
20260506081106 60 0 4.0 3.0 0.00 0.00 0.00 36 1009.9
20260506080107 61 0 5.0 4.0 0.00 0.00 0.00 36 1009.9
20260506073105 60 0 4.0 5.0 0.00 0.00 0.00 45 1010.9
20260506072105 59 0 2.0 0.0 0.00 0.00 0.00 49 1010.9
20260506071107 58 0 3.0 4.0 0.00 0.00 0.00 54 1010.9
20260506070106 57 337 4.0 4.0 0.00 0.00 0.00 56 1010.9
20260506062106 55 225 0.0 0.0 0.00 0.00 0.00 58 1010.9
20260506061106 55 225 2.0 3.0 0.00 0.00 0.00 58 1010.9
20260506060107 54 225 0.0 0.0 0.00 0.00 0.00 60 1010.9
20260506051106 50 180 0.0 0.0 0.00 0.00 0.00 60 1010.9
20260506050106 50 180 0.0 3.0 0.00 0.00 0.00 60 1010.9
20260506045106 49 180 1.0 3.0 0.00 0.00 0.00 59 1010.9